When you browse on this site, cookies collect data to enhance your experience and personalize the content and advertising you see.
Visit our Privacy Policy to learn more. By continuing to use the site, you agree to this use of cookies and data.
  • In France
  • List of Countries
  • For 7 days
  • Water Temperature
  • Weather Map
  • Weather Widgets
  • user-avatar
    Login

    Hourly Weather Musajid

    Today, 4 April, Saturday

    Time Temperature Precipitation Wind Pressure Humidity
    00:00 +27°C° 0 mm 6 mps 758 mmHg 47%
    01:00 +27°C° 0 mm 4 mps 758 mmHg 50%
    02:00 +26°C° 0 mm 3 mps 757 mmHg 52%
    03:00 +26°C° 0 mm 4 mps 757 mmHg 54%
    04:00 +26°C° 0 mm 3 mps 758 mmHg 53%
    05:00 +27°C° 0 mm 3 mps 759 mmHg 52%
    06:00 +27°C° 0 mm 2 mps 759 mmHg 51%
    07:00 +28°C° 0 mm 3 mps 760 mmHg 48%
    08:00 +29°C° 0 mm 4 mps 760 mmHg 45%
    09:00 +30°C° 0 mm 5 mps 760 mmHg 42%
    10:00 +30°C° 0 mm 5 mps 760 mmHg 40%
    11:00 +32°C° 0 mm 5 mps 760 mmHg 38%
    12:00 +32°C° 0 mm 5 mps 760 mmHg 36%
    13:00 +33°C° 0 mm 4 mps 759 mmHg 35%
    14:00 +33°C° 0 mm 4 mps 758 mmHg 34%
    15:00 +33°C° 0 mm 4 mps 758 mmHg 33%
    16:00 +32°C° 0 mm 4 mps 758 mmHg 35%
    17:00 +30°C° 0 mm 5 mps 759 mmHg 37%
    18:00 +29°C° 0 mm 5 mps 759 mmHg 39%
    19:00 +29°C° 0 mm 5 mps 760 mmHg 41%
    20:00 +28°C° 0 mm 5 mps 760 mmHg 42%
    21:00 +28°C° 0 mm 5 mps 760 mmHg 43%
    22:00 +28°C° 0 mm 5 mps 760 mmHg 44%
    23:00 +27°C° 0 mm 6 mps 760 mmHg 44%

    Tomorrow, 5 April, Sunday

    Time Temperature Precipitation Wind Pressure Humidity
    00:00 +27°C° 0 mm 6 mps 760 mmHg 45%
    01:00 +26°C° 0 mm 6 mps 760 mmHg 44%
    02:00 +26°C° 0 mm 6 mps 760 mmHg 43%
    03:00 +26°C° 0 mm 6 mps 760 mmHg 42%
    04:00 +24°C° 0 mm 6 mps 761 mmHg 44%
    05:00 +24°C° 0 mm 6 mps 761 mmHg 45%
    06:00 +24°C° 0 mm 6 mps 762 mmHg 47%
    07:00 +27°C° 0 mm 6 mps 762 mmHg 39%
    08:00 +29°C° 0 mm 5 mps 762 mmHg 31%
    09:00 +33°C° 0 mm 5 mps 762 mmHg 23%
    10:00 +34°C° 0 mm 5 mps 762 mmHg 21%
    11:00 +35°C° 0 mm 5 mps 762 mmHg 19%
    12:00 +36°C° 0 mm 5 mps 762 mmHg 18%
    13:00 +35°C° 0 mm 6 mps 761 mmHg 18%
    14:00 +35°C° 0 mm 7 mps 761 mmHg 18%
    15:00 +35°C° 0 mm 8 mps 760 mmHg 19%
    16:00 +34°C° 0 mm 7 mps 760 mmHg 21%
    17:00 +33°C° 0 mm 7 mps 761 mmHg 23%
    18:00 +32°C° 0 mm 7 mps 761 mmHg 25%
    19:00 +30°C° 0 mm 6 mps 761 mmHg 28%
    20:00 +29°C° 0 mm 5 mps 761 mmHg 32%
    21:00 +28°C° 0 mm 4 mps 761 mmHg 35%
    22:00 +27°C° 0 mm 4 mps 761 mmHg 37%
    23:00 +26°C° 0 mm 4 mps 761 mmHg 38%

    Day after tomorrow, 6 April, Monday

    Time Temperature Precipitation Wind Pressure Humidity
    00:00 +26°C° 0 mm 4 mps 761 mmHg 40%
    01:00 +26°C° 0 mm 4 mps 760 mmHg 41%
    02:00 +25°C° 0 mm 4 mps 760 mmHg 42%
    03:00 +25°C° 0 mm 4 mps 760 mmHg 43%
    04:00 +25°C° 0 mm 4 mps 760 mmHg 43%
    05:00 +25°C° 0 mm 4 mps 760 mmHg 43%
    06:00 +25°C° 0 mm 4 mps 761 mmHg 43%
    07:00 +27°C° 0 mm 4 mps 761 mmHg 37%
    08:00 +29°C° 0 mm 4 mps 761 mmHg 30%
    09:00 +32°C° 0 mm 4 mps 761 mmHg 24%
    10:00 +33°C° 0 mm 4 mps 761 mmHg 21%
    11:00 +35°C° 0 mm 4 mps 761 mmHg 19%
    12:00 +36°C° 0 mm 4 mps 761 mmHg 17%
    13:00 +36°C° 0 mm 4 mps 760 mmHg 17%
    14:00 +36°C° 0 mm 4 mps 760 mmHg 17%
    15:00 +36°C° 0 mm 4 mps 759 mmHg 17%
    16:00 +35°C° 0 mm 4 mps 759 mmHg 17%
    17:00 +34°C° 0 mm 4 mps 759 mmHg 18%
    18:00 +33°C° 0 mm 3 mps 759 mmHg 19%
    19:00 +31°C° 0 mm 3 mps 759 mmHg 19%
    20:00 +30°C° 0 mm 4 mps 760 mmHg 20%
    21:00 +29°C° 0 mm 4 mps 760 mmHg 20%
    22:00 +29°C° 0 mm 4 mps 760 mmHg 20%
    23:00 +28°C° 0 mm 4 mps 759 mmHg 20%

    7 April, Tuesday

    Time Temperature Precipitation Wind Pressure Humidity
    00:00 +28°C° 0 mm 3 mps 759 mmHg 20%
    01:00 +28°C° 0 mm 3 mps 759 mmHg 20%
    02:00 +28°C° 0 mm 2 mps 759 mmHg 21%
    03:00 +27°C° 0 mm 2 mps 758 mmHg 22%
    04:00 +27°C° 0 mm 2 mps 759 mmHg 23%
    05:00 +27°C° 0 mm 2 mps 759 mmHg 23%
    06:00 +27°C° 0 mm 2 mps 759 mmHg 23%
    07:00 +29°C° 0 mm 2 mps 759 mmHg 21%
    08:00 +30°C° 0 mm 2 mps 760 mmHg 20%
    09:00 +32°C° 0 mm 2 mps 760 mmHg 18%
    10:00 +34°C° 0 mm 2 mps 760 mmHg 19%
    11:00 +34°C° 0 mm 2 mps 759 mmHg 19%
    12:00 +35°C° 0 mm 2 mps 759 mmHg 19%
    13:00 +35°C° 0 mm 3 mps 758 mmHg 20%
    14:00 +34°C° 0 mm 3 mps 758 mmHg 22%
    15:00 +34°C° 0 mm 4 mps 757 mmHg 23%
    16:00 +33°C° 0 mm 4 mps 757 mmHg 26%
    17:00 +32°C° 0 mm 4 mps 757 mmHg 29%
    18:00 +29°C° 0 mm 4 mps 757 mmHg 31%
    19:00 +29°C° 0 mm 4 mps 757 mmHg 32%
    20:00 +29°C° 0 mm 3 mps 757 mmHg 33%
    21:00 +29°C° 0 mm 3 mps 758 mmHg 33%
    22:00 +29°C° 0 mm 3 mps 757 mmHg 33%
    23:00 +29°C° 0 mm 3 mps 757 mmHg 33%

    8 April, Wednesday

    Time Temperature Precipitation Wind Pressure Humidity
    00:00 +29°C° 0 mm 3 mps 757 mmHg 32%
    01:00 +28°C° 0 mm 4 mps 756 mmHg 32%
    02:00 +28°C° 0 mm 4 mps 756 mmHg 32%
    03:00 +28°C° 0 mm 4 mps 756 mmHg 33%
    04:00 +29°C° 0 mm 4 mps 756 mmHg 32%
    05:00 +29°C° 0 mm 3 mps 756 mmHg 32%
    06:00 +29°C° 0 mm 3 mps 757 mmHg 31%
    07:00 +30°C° 0 mm 3 mps 757 mmHg 28%
    08:00 +33°C° 0 mm 4 mps 758 mmHg 24%
    09:00 +35°C° 0 mm 4 mps 758 mmHg 21%
    10:00 +35°C° 0 mm 4 mps 758 mmHg 21%
    11:00 +35°C° 0 mm 4 mps 757 mmHg 22%
    12:00 +36°C° 0 mm 4 mps 757 mmHg 22%
    13:00 +35°C° 0 mm 5 mps 756 mmHg 23%
    14:00 +35°C° 0 mm 5 mps 756 mmHg 24%
    15:00 +35°C° 0 mm 5 mps 755 mmHg 24%
    16:00 +34°C° 0 mm 5 mps 755 mmHg 27%
    17:00 +33°C° 0 mm 6 mps 755 mmHg 29%
    18:00 +32°C° 0 mm 6 mps 755 mmHg 32%
    19:00 +32°C° 0 mm 6 mps 755 mmHg 33%
    20:00 +32°C° 0 mm 6 mps 756 mmHg 35%
    21:00 +32°C° 0 mm 7 mps 756 mmHg 36%
    22:00 +30°C° 0 mm 7 mps 756 mmHg 37%
    23:00 +30°C° 0 mm 7 mps 755 mmHg 38%

    9 April, Thursday

    Time Temperature Precipitation Wind Pressure Humidity
    00:00 +30°C° 0 mm 7 mps 755 mmHg 39%
    01:00 +30°C° 0 mm 6 mps 755 mmHg 40%
    02:00 +30°C° 0 mm 6 mps 754 mmHg 41%
    03:00 +30°C° 0 mm 6 mps 754 mmHg 42%
    04:00 +30°C° 0 mm 6 mps 754 mmHg 40%
    05:00 +30°C° 0 mm 5 mps 755 mmHg 38%
    06:00 +30°C° 0 mm 5 mps 755 mmHg 36%
    07:00 +33°C° 0 mm 5 mps 756 mmHg 31%
    08:00 +35°C° 0 mm 4 mps 756 mmHg 25%
    09:00 +37°C° 0 mm 4 mps 756 mmHg 20%
    10:00 +37°C° 0 mm 4 mps 756 mmHg 20%
    11:00 +37°C° 0 mm 5 mps 756 mmHg 20%
    12:00 +39°C° 0 mm 5 mps 755 mmHg 20%
    13:00 +38°C° 0 mm 6 mps 755 mmHg 22%
    14:00 +38°C° 0 mm 6 mps 754 mmHg 24%
    15:00 +36°C° 0 mm 7 mps 754 mmHg 25%
    16:00 +35°C° 0 mm 7 mps 753 mmHg 29%
    17:00 +34°C° 0 mm 7 mps 753 mmHg 33%
    18:00 +33°C° 0 mm 7 mps 753 mmHg 37%
    19:00 +32°C° 0 mm 7 mps 754 mmHg 39%
    20:00 +32°C° 0 mm 6 mps 754 mmHg 41%
    21:00 +30°C° 0 mm 6 mps 754 mmHg 43%
    22:00 +30°C° 0 mm 6 mps 754 mmHg 43%
    23:00 +30°C° 0 mm 7 mps 754 mmHg 44%
    Show more